Location: Gudip?du
(17.0263°N, 80.8301°E)
Time: 06:23:27
(UTC+00:00)

CZ-4B R/B - Pass Details

Date: 03 August 2024
Orbit: 700 x 800 km, 98.9° (Epoch: 09 September)

Event Time Altitude Azimuth Distance (km) Brightness Sun altitude
Rises 14:13:18 0° 176° (S) 3,282 6.5 -15.3°
Reaches altitude 10° 14:15:40 10° 180° (S) 2,345 5.8 -15.8°
Maximum altitude 14:20:45 57° 258° (WSW) 909 4.1 -16.9°
Drops below altitude 10° 14:25:44 10° 337° (NNW) 2,296 6.7 -18.0°
Sets 14:28:03 0° 341° (NNW) 3,207 7.4 -18.5°
